Regional Weather Roundup
Issued by NWS Charleston, SC

Current Version | Previous Version | Text Only | Print | Product List | Glossary Off
Versions: 1 2 3 4 5 6 7 8 9 10 11 12 13 14 15 16 17 18 19 20 21 22 23 24 25 26 27 28 29 30 31 32 33 34 35 36 37 38 39 40 41 42 43 44 45 46 47 48 49 50

000
ASUS42 KCHS 291512
RWRCHS

REGIONAL WEATHER ROUNDUP
NATIONAL WEATHER SERVICE CHARLESTON SC
1100 AM EDT MON JUN 29 2015

NOTE: "FAIR" INDICATES FEW OR NO CLOUDS BELOW 12,000 FEET WITH NO
SIGNIFICANT WEATHER AND/OR OBSTRUCTIONS TO VISIBILITY.

NOT ALL STATIONS ARE QUALITY CONTROLLED BY THE NATIONAL
WEATHER SERVICE. USE DATA WITH CAUTION...ESPECIALLY
DEWPOINT OBSERVATIONS.

SCZ027-030-031-034>040-042>050-291600-
...SOUTHEAST SOUTH CAROLINA...

CITY           SKY/WX    TMP DP  RH WIND       PRES   REMARKS
N CHARLESTON   MOSUNNY   85  59  41 NW9       29.99F
WATERFRONT PAR   N/A     81  69  67 VRB2      29.97S
MOUNT PLEASANT FAIR      84  64  51 W7        29.99S
JOHNS ISLAND     N/A     84  68  58 W7        30.00S
PINOPOLIS      NOT AVBL
MONCKS CORNER  FAIR      86  57  37 W6        29.99S
SUMMERVILLE    FAIR      84  64  51 SW7       30.01S
BEAUFORT MCAS  MOSUNNY   83  67  58 NW8       30.01
BEAUFORT ARPT  FAIR      82  68  61 W6        30.01S
HILTON HEAD IS MOSUNNY   84  68  58 NW6       30.03S
WALTERBORO     SUNNY     82  63  51 W9        30.01S
ALLENDALE      FAIR      84  63  48 VRB5G12   30.00F

...SOUTHERN MIDLANDS AND PEE DEE...

CITY           SKY/WX    TMP DP  RH WIND       PRES   REMARKS
GEORGETOWN     NOT AVBL
KINGSTREE      NOT AVBL
ORANGEBURG     SUNNY     84  54  35 NW12      30.00F
BARNWELL       FAIR      84  57  39 W7        30.02S
AIKEN          FAIR     N/A N/A N/A W10G17    30.05S
MANNING        NOT AVBL
COLUMBIA       MOSUNNY   84  54  35 W10       29.98F
SUMTER         SUNNY     84  58  41 W13       29.97S
FLORENCE       SUNNY     85  60  42 SW9       29.97S
MYRTLE BEACH   MOSUNNY   84  66  54 NW9       29.99R
N MYRTLE BEACH PTSUNNY   83  70  64 W6        29.98R

$$

GAZ063-065-086>088-099>101-113>116-118-119-134>141-150-291600-
...SOUTHEAST GEORGIA...

CITY           SKY/WX    TMP DP  RH WIND       PRES   REMARKS
SAVANNAH ARPT  PTSUNNY   83  66  56 W7        30.02S
HUNTER AAF     SUNNY     83  70  66 NW5       30.00S
FORT STEWART   MOSUNNY   81  68  64 W7        30.01S
STATESBORO     SUNNY     83  69  62 W9        30.03S
SYLVANIA       SUNNY     85  69  58 NW12      30.03F
CLAXTON        FAIR      81  70  69 NW3       30.03F

...CSRA...CENTRAL AND FAR SOUTHEAST GEORGIA...

CITY           SKY/WX    TMP DP  RH WIND       PRES   REMARKS
THOMSON        MOSUNNY   82  64  52 SW3       30.07F
AUGUSTA-BUSH   SUNNY     84  55  36 NW8       30.01S
AUGUSTA-DANIEL SUNNY     83  55  38 W7        30.03S
SWAINSBORO     FAIR      86  68  54 W8        30.04F
VIDALIA        SUNNY     81  66  61 W5        30.05S
EASTMAN        FAIR      83  67  58 NW7       30.07F
HAZLEHURST     FAIR      81  70  68 CALM      30.05S
ALMA           MOSUNNY   82  70  66 W6        30.05S
WAYCROSS       PTSUNNY   83  76  80 W5        30.05S HX  91
JESUP          FAIR      82  72  69 NW3       30.04F
BAXLEY         FAIR      82  72  69 W3        30.04S
BRUNSWICK      PTSUNNY   79  72  78 CALM      30.04F
SAINT SIMONS   CLOUDY    77  72  84 SW7       30.03F

$$

SCZ027-028-034-036>038-045-046-048>050-GAZ119-141-291600-
...LAKE AND SUPPLEMENTAL COASTAL OBSERVATIONS...

STATION/POSITION TIME  TEMP    WIND        PRES    WAVE   SWELL
                       AIR SEA DIR/SP/G            HT/PER HT/PER/DIR
                 (UTC) (F)     (DEG/KT/KT) (MB)    (FT/S) (FT/S/D)
UPR LAKE MARION  NOT AVBL
WINYAH BAY       1345   80     280/  6     1014.0
LAKE MURRAY      1400   76     220/  9/ 12 1015.2S
ACE BASIN NERRS  1345   80     270/  2     1016.0
FORT PULASKI     1400   78 84  290/  6/  7 1017.0R
SAPELO ISLAND    1400   75     240/  4     1017.0S

$$

ANZ835-935-AMZ111-154-330-350-352-354-370-450-454-472-291600-
...C-MAN AND BUOY OBSERVATIONS...

STATION/POSITION TIME  TEMP    WIND        PRES    WAVE   SWELL
                       AIR SEA DIR/SP/G            HT/PER HT/PER/DIR
                 (UTC) (F)     (DEG/KT/KT) (MB)    (FT/S) (FT/S/D)
BUOY 41004       1450   80 83  270/ 12/ 16 1015.3R   4/ 7   3/ 7
BUOY 41008       1450   75 79  270/  6/  8 1017.1S   2/ 8   2/120/ 8
FOLLY BEACH CMAN 1400   80     280/  4/  5 1015.8R
CAPERS NEARSHORE 1408   79     280/  8/ 12 1015.9R
FRIPP NEARSHORE  1400   80     280/  8/  8 1016.1R


STATION/POSITION TIME  TEMP    WIND        PRES    WAVE   SWELL
                       AIR SEA DIR/SP/G            HT/PER HT/PER/DIR
                 (UTC) (F)     (DEG/KT/KT) (MB)    (FT/S) (FT/S/D)
5E ST. MARYS GA  1421      77                N/A     2/ 9
FRYING PAN BUOY  1450   80 80  270/  8/ 10 1015.2S   4/ 7   3/150/ 7
BUOY 41025       1450   77 81  120/ 10/ 14 1015.3F   4/ 7   3/170/ 7
CAPE LOOKOUT NC  1400   77     130/ 12/ 13 1015.3R
BUOY 41002       1450   80 80  240/ 16/ 21 1018.5R   6/ 7   3/170/14
BUOY 41010       1420   84 84  250/ 10/ 12 1018.4R
ST AUGUSTINE FL  1500   82 74  250/  9/ 12 1018.0F


$$


USA.gov is the U.S. government's official web portal to all federal, state and local government web resources and services.